#timestamp,LO_Frequency,Hit,StdDev 
1650326415.5,286047004.6,N
1650326435.3,286047005.9,N
1650326455.2,286047003.4,N
1650326475.0,286047001.7,N
1650326475.9,286047001.7,N
1650326495.7,286047001.6,N
1650326515.6,286047006.0,N
1650326535.4,286047004.9,N
1650326555.3,286047007.4,N
1650326575.1,286047005.8,N
1650326576.0,286047005.8,N
1650326595.8,286047006.4,N
1650326615.7,286047006.7,N
1650326635.5,286047004.5,N
1650326655.3,286047005.9,N
1650326675.2,286047003.8,N
1650326695.0,286047001.8,N
1650326695.9,286047001.8,N
1650326715.8,286047004.2,N
1650326735.6,286047003.2,N
1650326755.4,286047004.4,N
1650326775.3,286047002.0,N
1650326795.1,286047001.2,N
1650326815.8,286046998.8,N
1650326835.7,286046999.7,N
1650326855.5,286047004.0,N
1650326875.4,286047002.1,N
1650326895.2,286047012.3,Y
1650326915.0,286047006.7,P
1650326915.9,286047006.7,P
1650326935.8,286047005.9,P
1650326955.6,286047006.8,Y
1650326975.4,286047002.9,P
1650326995.3,286047002.7,N
1650327015.1,286046998.5,N
1650327035.9,286046998.8,N
1650327055.7,286047000.4,N
1650327075.5,286046999.8,N
1650327095.4,286046998.7,N
1650327115.2,286046996.7,N
1650327135.0,286046998.0,N
1650327136.0,286046998.0,N
1650327155.8,286046996.2,N
1650327175.6,286046995.7,N
1650327195.5,286046996.7,N
1650327215.3,286046997.9,N
1650327235.1,286046991.9,N
1650327255.9,286046994.0,N
1650327275.7,286046993.7,N
1650327295.5,286046998.8,N
1650327315.4,286046996.7,N
1650327335.2,286046993.6,N
1650327355.1,286046993.9,N
1650327356.0,286046993.9,N
1650327375.8,286046991.9,N
1650327395.6,286046990.9,N
1650327415.5,286046992.8,N
1650327435.3,286046994.8,N
1650327455.1,286046992.0,N
1650327475.9,286046991.4,N
1650327495.7,286046991.6,N
1650327515.6,286046990.9,N
1650327535.4,286046989.0,Y
1650327555.2,286046995.9,P
1650327575.1,286046993.4,P
1650327576.0,286046993.4,P
1650327595.8,286046993.6,Y
1650327615.7,286047001.2,P
1650327635.5,286047001.3,N
1650327655.3,286047002.2,N
1650327675.2,286047000.4,N
1650327695.0,286046999.8,N
1650327695.9,286046999.8,N
1650327715.7,286047004.0,N
1650327735.6,286047004.8,N
1650327755.4,286047006.2,N
1650327775.3,286047011.8,Y
1650327795.1,286047013.6,P
1650327796.0,286047013.6,N
1650327815.8,286047013.3,N
1650327835.7,286047011.9,N
1650327855.5,286047008.5,N
1650327875.3,286047007.8,N
1650327895.2,286047013.2,Y
1650327915.0,286047005.3,P
1650327915.9,286047005.3,N
1650327935.8,286047009.1,P
1650327955.6,286047008.4,Y
1650327975.4,286046996.5,P
1650327995.3,286046996.5,N
1650328015.1,286047001.2,N
1650328035.9,286047005.3,N
1650328055.7,286047007.7,N
1650328075.5,286047013.5,N
1650328095.4,286047012.3,N
1650328115.2,286047005.7,N
1650328135.0,286047002.2,N
1650328135.9,286047002.2,N
1650328155.8,286047000.4,N
1650328175.6,286047000.1,N
1650328195.5,286046996.8,N
1650328215.3,286046993.5,N
1650328235.1,286046994.7,N
1650328255.9,286046990.7,N
1650328275.7,286046989.7,N
1650328295.5,286046991.6,N
1650328315.4,286046989.3,N
1650328335.2,286046987.8,N
1650328355.1,286046985.3,N
1650328356.0,286046985.3,N
1650328375.8,286046988.1,N
1650328395.6,286046987.7,N
1650328415.5,286046985.3,N
1650328435.3,286046988.6,N
1650328455.1,286046989.7,N
1650328475.9,286046988.2,N
1650328495.7,286046983.9,N
1650328515.6,286046983.1,N
1650328535.4,286046985.1,N
1650328555.2,286046985.0,N
1650328575.1,286046983.3,N
1650328576.0,286046983.3,N
1650328595.8,286046982.6,N
1650328615.6,286046983.5,N
1650328635.5,286046984.7,N
1650328655.3,286046982.1,N
1650328675.2,286046983.3,N
1650328695.9,286046983.5,N
1650328715.7,286046989.3,N
1650328735.6,286046997.7,N
1650328755.4,286046995.7,N
1650328775.2,286046992.9,N
1650328795.1,286046991.5,N
1650328796.0,286046991.5,N
1650328815.8,286046991.1,N
1650328835.7,286046989.7,N
1650328855.5,286046986.9,Y
1650328875.3,286047002.0,P
1650328895.2,286046999.8,N
1650328915.0,286046998.7,N
1650328915.9,286046998.7,N
1650328935.8,286046995.9,N
1650328955.6,286046993.6,N
1650328975.4,286046993.5,N
1650328995.3,286046992.1,N
1650329015.1,286046995.0,N
1650329035.8,286046996.9,N
1650329055.7,286046997.8,N
1650329075.5,286046995.4,N
1650329095.4,286046995.1,N
1650329115.2,286046993.3,N
1650329135.0,286046992.2,N
1650329135.9,286046992.2,N
1650329155.8,286046992.3,N
1650329175.6,286046994.4,N
1650329195.4,286046995.2,N
1650329215.3,286046997.0,N
1650329235.1,286046998.7,N
1650329255.9,286047006.0,N
1650329275.7,286047001.4,N
1650329295.5,286047002.1,N
1650329315.4,286047003.0,N
1650329335.2,286047003.5,N
1650329355.0,286047002.6,N
1650329355.9,286047002.6,N
1650329375.8,286046996.6,N
1650329395.6,286046993.3,N
1650329415.5,286046993.9,N
1650329435.3,286046991.8,N
1650329455.1,286046994.1,N
1650329475.9,286046994.2,N
1650329495.7,286046990.1,N
1650329515.5,286046991.3,N
1650329535.4,286046990.3,N
1650329555.2,286046992.7,N
1650329575.1,286046990.7,N
1650329576.0,286046990.7,N
1650329595.8,286046991.3,N
1650329615.6,286046991.0,N
1650329635.5,286046992.7,N
1650329655.3,286046992.9,N
1650329675.2,286046993.2,N
1650329695.9,286046992.0,N
1650329715.7,286046992.5,N
1650329735.6,286046990.6,N
1650329755.4,286046990.5,N
1650329775.2,286046990.6,N
1650329795.1,286046991.5,N
1650329796.0,286046991.5,N
1650329815.8,286046991.5,N
1650329835.7,286046989.3,N
1650329855.5,286046989.5,N
1650329875.3,286046988.4,Y
1650329895.2,286046994.2,P
1650329915.0,286046994.3,P
1650329915.9,286046994.3,P
1650329935.8,286046994.1,Y
1650329955.6,286046998.3,P
1650329975.4,286046999.0,N
1650329995.3,286047000.5,N
